GFSSGP_500_rhum_162.txt.gz
RH
7 8 9 7 8 10 30 42 41 40 24 12 13 12 14 43 74 67 56 64 38 35 30 32 31 22 27 36 42 45 94 82 70 75 70 37 32 32 34 35 35 33 32 33 33 32 33 34 38
13 18 18 16 10 8 31 45 42 39 29 14 13 13 13 14 18 24 24 23 33 31 24 28 30 24 27 30 51 80 90 76 38 36 39 36 33 34 36 37 36 35 37 40 38 37 40 36 38
15 17 18 17 15 10 28 44 43 40 20 14 14 14 14 13 17 24 24 20 22 17 16 22 29 24 28 48 68 29 39 33 32 38 36 36 36 38 39 38 37 37 38 29 24 25 23 31 36
10 11 13 14 14 12 34 43 41 21 13 13 14 14 14 14 15 17 19 15 14 14 16 19 22 21 24 29 30 23 23 26 31 38 37 37 37 40 38 37 36 38 31 17 14 13 13 18 31
16 15 10 12 14 20 39 49 28 19 12 14 15 17 17 17 14 14 15 14 12 13 16 21 22 21 26 25 23 22 24 25 28 30 31 31 31 32 30 29 27 28 22 15 12 14 12 11 12
19 25 25 16 15 38 44 45 34 22 16 16 16 17 19 20 15 13 12 12 11 13 16 20 22 20 27 27 24 22 22 22 22 24 23 24 25 25 22 21 18 17 14 12 12 12 12 13 14
30 29 29 22 20 21 37 45 26 24 18 29 26 22 19 21 16 13 12 12 13 15 18 22 24 21 25 29 27 25 23 22 21 19 19 19 19 18 17 16 14 14 14 14 15 17 20 24 26
35 33 32 23 25 22 31 27 28 24 29 89 28 25 36 18 14 12 13 14 14 16 19 22 26 23 26 32 32 30 28 24 23 22 21 21 21 21 22 22 21 22 24 26 27 27 26 24 19
43 41 38 34 32 40 43 38 26 19 16 45 41 18 15 12 12 12 14 17 17 16 22 24 24 24 26 34 34 32 31 30 29 28 26 25 22 21 19 20 20 18 16 14 15 14 13 11 11
46 44 40 36 36 35 33 30 19 21 16 20 21 18 14 13 13 11 14 18 21 22 22 26 24 24 27 33 35 33 33 29 26 22 21 20 18 17 17 15 14 13 12 11 11 11 11 12 14
48 45 50 48 42 41 31 21 22 23 24 23 22 19 18 23 19 14 15 20 21 20 24 30 26 26 26 32 33 31 28 22 17 14 13 13 13 13 13 13 13 14 14 13 13 16 18 18 18
44 47 54 52 45 44 40 31 28 29 30 23 26 22 26 23 37 19 22 26 27 28 30 33 25 25 25 30 31 27 20 14 13 12 13 16 17 17 16 15 15 16 17 18 18 19 20 21 21
44 51 47 50 51 49 45 40 44 44 32 24 25 28 34 48 32 27 27 25 30 36 38 33 26 26 26 27 25 19 14 13 14 15 16 18 19 19 19 18 17 17 17 18 19 22 23 22 23
47 40 45 49 48 45 43 46 49 44 26 24 33 35 46 45 42 38 34 32 39 40 36 28 26 26 25 25 20 15 15 15 16 18 19 20 21 22 22 22 22 22 22 23 24 24 24 24 24
40 45 40 41 43 42 44 42 52 44 30 25 34 44 61 45 43 37 38 39 51 42 32 27 27 26 26 25 20 18 17 20 21 22 23 25 26 27 27 27 27 27 28 27 26 26 26 27 27
48 42 33 46 44 36 43 38 43 44 43 39 40 72 46 41 40 37 39 32 37 33 31 30 29 28 26 24 22 24 26 28 27 27 28 33 36 35 34 34 34 34 34 35 35 34 34 33 33
46 40 37 44 56 54 48 44 51 48 51 56 62 48 45 43 34 37 31 32 35 31 32 29 26 25 24 25 29 34 37 40 43 45 45 46 46 45 43 44 44 45 46 45 43 41 40 40 40
54 48 46 50 66 62 49 49 57 66 65 59 50 42 48 47 44 32 29 28 28 24 26 26 26 26 28 32 38 42 46 49 50 53 53 54 56 57 55 51 51 51 50 48 46 45 43 42 44
52 51 48 53 65 58 53 39 41 53 62 60 59 54 54 53 51 45 36 36 34 29 29 28 28 28 30 37 44 51 53 55 58 57 58 61 64 65 62 59 59 58 54 52 52 51 49 48 47
46 48 49 53 66 72 57 48 48 43 52 52 43 48 53 56 62 53 44 52 48 40 39 37 36 37 41 45 50 53 61 61 62 61 65 66 69 68 66 66 66 63 62 59 60 60 58 55 55
53 49 51 48 59 53 50 31 40 44 51 50 43 34 32 45 62 44 33 47 52 44 46 49 52 56 56 54 55 63 66 65 67 72 76 74 74 73 72 74 71 68 66 67 68 68 65 63 61
59 69 58 52 48 32 56 27 35 43 45 50 40 40 39 54 52 47 31 47 55 53 53 55 61 72 71 67 69 68 71 67 72 82 84 82 81 83 84 79 75 72 74 77 78 76 79 82 77
55 78 77 59 40 40 39 63 18 48 54 55 61 48 42 31 65 46 35 40 55 59 59 64 63 70 68 81 70 80 80 73 86 89 89 90 92 94 90 84 80 86 90 87 87 78 54 41 37
60 78 79 75 69 46 42 83 17 76 69 62 95 92 72 51 63 77 45 44 54 80 84 77 77 76 77 89 84 94 86 91 97 98 96 99 99 94 90 91 95 94 100 87 73 56 34 25 24
62 72 91 87 84 41 62 89 52 99 75 75 77 90 60 55 97 90 67 61 65 85 83 93 99 97 88 100 97 98 94 95 93 97 96 96 95 99 100 98 98 100 97 61 31 29 28 31 29
81 94 96 99 99 60 47 65 99 96 74 61 75 96 99 100 100 98 88 78 87 85 81 88 94 95 91 99 97 100 99 95 90 95 92 93 98 99 96 90 96 100 97 69 31 34 36 40 39
80 92 96 98 93 92 54 81 100 96 98 94 83 87 89 100 100 99 95 89 92 96 94 96 98 90 99 99 98 97 90 93 98 93 96 99 99 93 100 93 100 100 97 58 39 41 50 46 50
94 100 98 100 90 91 62 71 100 85 80 78 85 95 100 100 100 100 100 98 96 96 96 92 100 92 99 97 96 96 97 95 100 100 97 98 94 99 99 100 100 98 52 53 51 53 59 63 42
100 99 98 100 92 100 85 84 96 98 100 91 75 77 90 98 94 85 94 100 100 90 87 91 98 94 91 97 96 99 100 100 99 100 100 97 100 100 100 99 99 75 49 67 72 80 67 45 26
98 100 95 99 94 100 98 92 100 93 100 100 91 92 96 100 99 100 100 100 96 80 84 91 99 96 100 100 96 99 95 94 97 85 96 100 100 100 100 96 98 68 65 77 89 72 37 27 28

GFSSGP_500_rhum_165.txt.gz
RH
13 12 16 17 16 14 39 38 40 52 57 38 31 36 23 26 32 42 56 73 67 24 36 40 33 25 29 23 27 30 38 66 74 65 58 48 32 32 32 33 34 35 33 32 33 32 32 31 28
12 13 14 14 15 16 38 27 55 55 46 43 28 28 27 13 21 33 46 53 37 29 39 29 18 17 26 24 28 37 50 47 76 48 33 34 33 33 32 33 33 33 34 35 34 30 33 36 35
8 11 14 17 14 13 20 31 46 38 45 35 27 15 16 13 15 15 20 23 21 25 25 20 16 20 23 21 25 57 54 25 45 31 32 34 33 32 30 27 26 28 29 27 19 16 15 16 22
24 17 15 16 20 12 16 38 61 27 26 27 27 21 14 16 18 23 16 16 19 24 18 16 14 20 21 21 26 24 23 25 27 30 32 34 30 26 22 20 19 20 23 18 14 12 13 12 12
32 29 28 24 24 14 20 37 51 42 34 39 31 18 15 21 24 18 20 16 18 14 15 12 14 18 21 22 27 25 24 24 25 26 27 25 23 20 19 17 16 16 16 14 13 12 12 13 18
26 26 27 31 30 20 19 46 58 56 52 49 42 23 17 22 33 23 21 16 14 12 12 12 16 18 20 21 27 28 25 24 23 23 22 21 20 19 19 18 18 17 16 16 17 18 19 21 23
26 24 35 36 33 21 22 41 40 38 44 44 34 26 23 23 32 30 20 16 13 12 11 14 15 20 22 22 27 30 28 25 23 21 20 20 20 20 19 18 19 18 19 18 17 17 17 16 15
39 31 39 42 28 18 24 28 29 33 40 37 37 72 36 43 39 60 37 14 12 12 14 16 17 22 25 24 26 30 31 30 28 26 26 24 21 18 15 14 13 14 14 13 12 10 10 10 11
37 41 40 45 37 30 34 36 37 37 36 31 30 27 34 26 26 16 13 18 12 12 17 20 20 24 26 24 25 31 34 32 31 30 28 24 18 15 12 12 12 12 12 12 11 10 10 11 11
30 37 44 42 41 41 45 43 40 39 33 22 20 19 21 22 20 18 24 40 22 12 20 20 21 25 29 25 25 30 33 33 31 26 21 16 14 14 13 14 13 13 13 14 14 13 13 14 15
37 30 42 40 44 40 41 45 38 33 27 22 23 24 27 26 25 20 26 35 33 17 23 24 24 27 30 26 26 30 32 31 28 20 15 14 14 14 16 15 14 14 14 15 17 17 17 17 18
32 38 37 39 38 35 36 50 27 27 29 26 34 30 33 29 26 26 41 52 46 23 25 28 31 34 31 26 28 31 31 31 24 17 14 14 14 16 18 19 19 19 18 18 17 17 18 18 20
38 39 35 31 30 39 44 48 49 37 42 44 43 44 43 27 26 32 40 52 41 29 26 33 35 38 32 27 28 28 32 24 18 15 15 16 17 19 20 21 22 21 21 20 21 21 22 22 24
44 32 33 32 32 36 42 44 50 48 48 47 49 47 34 25 31 44 43 51 42 45 42 39 36 37 29 27 26 27 28 24 16 16 17 19 20 21 23 24 26 25 25 25 26 27 28 30 31
43 34 32 29 39 38 43 27 29 45 55 57 52 40 30 26 35 39 60 57 37 44 48 50 45 34 27 26 26 26 26 21 18 19 24 25 25 25 27 30 35 35 34 34 34 34 36 38 38
39 35 29 48 40 37 34 24 42 48 46 47 43 41 40 38 39 68 62 67 48 45 49 43 34 30 29 29 27 25 24 21 24 29 33 36 38 41 41 42 42 44 45 42 38 39 41 45 46
46 36 36 36 42 34 31 23 26 40 49 48 46 47 48 51 61 52 46 47 50 34 40 31 31 30 28 27 24 23 22 25 32 37 40 44 47 48 48 50 52 53 56 54 49 46 48 51 53
45 37 38 38 45 37 28 23 22 29 53 51 55 55 60 60 56 49 49 49 39 33 37 32 28 27 25 25 25 24 24 27 35 40 44 47 48 53 56 58 61 62 64 61 59 56 56 58 60
40 41 36 38 51 52 39 32 32 43 40 47 45 51 53 52 52 47 40 41 41 45 42 40 36 32 29 28 28 27 28 30 36 44 51 52 55 58 58 60 65 64 65 62 64 62 60 66 66
51 46 42 43 55 60 47 30 41 56 56 38 50 50 47 49 53 38 28 24 41 45 50 52 50 45 40 38 38 37 37 42 52 55 54 58 60 64 71 70 70 72 70 72 73 72 71 73 70
54 52 46 43 51 58 49 27 42 54 60 59 48 42 41 47 49 41 35 28 35 44 45 47 55 58 55 51 50 52 55 58 58 61 67 70 72 75 77 78 78 78 80 82 82 80 78 75 77
54 71 63 59 55 48 58 21 37 40 50 59 58 56 47 51 59 54 44 36 33 49 48 50 57 66 59 53 58 66 70 68 67 76 79 81 81 83 85 86 91 90 92 92 85 82 83 83 76
60 79 77 70 54 52 60 61 38 54 55 70 72 71 63 72 49 43 52 56 54 49 66 61 63 71 79 79 75 80 86 79 83 87 91 92 93 98 97 96 93 97 96 90 89 92 90 94 51
65 76 73 79 74 42 61 100 39 61 45 63 64 57 59 59 57 39 44 47 60 66 75 95 94 98 98 97 100 98 86 87 96 100 98 98 100 97 96 100 99 98 98 100 100 90 95 97 44
84 85 92 94 93 38 59 92 86 69 68 65 71 72 64 83 98 72 67 81 100 96 95 96 97 95 99 98 97 99 95 98 100 100 98 100 98 95 98 98 95 100 100 100 100 100 99 100 94
82 96 95 98 83 59 75 64 97 66 74 66 70 98 100 98 100 96 96 93 98 98 99 98 97 95 91 94 100 97 95 96 97 97 100 100 99 92 96 100 100 98 99 100 100 100 99 100 69
79 94 99 99 95 87 57 78 100 95 90 75 74 74 100 97 97 97 100 99 94 94 100 98 97 96 96 91 95 94 92 93 100 98 98 99 96 97 100 99 100 98 97 100 99 95 100 95 56
82 96 99 98 95 94 70 86 100 94 95 97 99 100 99 98 95 99 97 98 99 99 100 100 98 98 100 100 98 96 98 98 98 95 92 97 100 100 100 97 99 91 98 100 100 100 99 80 52
96 99 98 100 97 100 85 98 87 84 76 68 78 94 98 99 100 92 89 100 99 99 98 98 97 96 97 98 97 97 93 88 87 87 94 100 100 100 97 100 100 100 100 100 100 100 95 72 54
99 98 100 100 96 96 100 92 85 100 99 92 86 93 100 96 99 100 99 96 92 93 94 97 100 100 100 95 97 100 100 96 88 84 88 98 90 100 100 95 92 100 100 100 96 84 72 65 66

GFSSGP_500_rhum_171.txt.gz
RH
17 12 9 10 12 15 16 26 22 22 25 34 47 52 62 61 58 60 54 51 42 26 27 56 47 65 48 21 17 24 27 33 44 72 71 77 84 52 40 34 33 33 32 30 28 27 29 29 32
15 10 17 23 20 22 17 15 16 17 27 24 30 26 38 46 54 52 48 44 37 26 41 84 99 90 43 24 17 23 25 31 48 67 73 71 77 44 35 35 34 32 29 29 27 25 20 16 17
9 10 24 17 22 26 22 16 18 22 21 20 22 27 39 48 49 43 38 38 31 24 28 48 77 55 29 25 18 23 24 30 35 81 60 85 73 40 36 35 28 23 22 22 20 16 13 12 13
9 18 19 17 24 27 23 22 20 25 23 25 27 28 34 50 49 52 43 43 24 31 32 31 25 24 25 22 19 24 26 31 30 31 31 52 37 36 34 28 22 19 19 19 15 14 14 15 16
12 20 15 19 21 34 31 28 30 29 26 21 22 24 36 46 46 47 41 31 28 34 34 29 24 21 22 20 24 26 26 31 30 29 29 29 32 32 29 22 20 18 18 18 16 16 16 17 18
11 11 9 18 24 26 34 29 34 32 29 26 27 28 32 38 41 40 37 36 36 37 35 34 23 22 23 20 26 27 26 29 31 28 27 26 27 25 22 20 20 18 17 17 17 17 18 19 19
9 8 13 25 36 33 30 33 37 36 32 30 30 32 37 44 43 34 28 31 51 39 33 40 16 17 17 21 24 29 30 28 34 31 28 26 24 21 20 20 21 21 20 20 20 19 17 14 14
9 11 20 23 28 31 36 31 35 32 32 29 34 35 38 44 40 34 24 22 23 30 29 16 15 18 30 22 21 28 33 29 34 35 32 24 22 22 22 23 24 24 23 20 18 16 14 13 11
25 16 21 21 24 28 38 38 31 30 29 29 33 39 40 40 40 38 32 23 24 25 25 19 24 31 30 20 24 26 30 29 30 35 35 32 28 28 27 27 26 24 22 18 16 14 14 13 12
30 34 16 20 24 28 38 39 41 35 31 31 35 44 46 41 41 46 44 31 32 31 28 25 19 59 34 20 24 24 29 30 30 35 37 36 33 30 28 26 23 20 19 16 14 14 14 15 16
15 22 24 27 29 33 39 39 40 41 40 39 42 45 41 39 40 46 36 39 45 38 28 24 26 67 44 26 25 26 29 32 30 32 36 37 35 30 23 19 18 19 18 18 18 17 16 16 16
41 50 32 28 37 43 40 42 39 37 40 40 43 38 33 39 35 35 36 45 46 40 30 26 49 56 41 29 28 32 32 33 30 30 35 36 35 30 21 18 17 18 18 19 21 22 22 22 22
50 50 50 48 41 41 44 46 42 37 30 38 38 33 28 40 48 37 42 54 51 34 31 35 51 55 48 47 37 38 38 38 30 30 31 36 36 30 21 19 19 20 20 22 23 24 27 28 30
49 55 56 64 55 50 45 42 39 37 37 35 32 31 26 25 44 48 52 70 58 32 32 47 65 76 57 50 48 49 44 39 34 28 29 30 34 31 21 21 21 23 25 25 26 28 32 36 39
48 56 60 67 65 59 48 35 35 38 40 33 25 23 24 24 29 36 58 63 48 33 40 54 61 60 70 51 59 62 57 44 33 27 27 28 30 29 24 24 30 32 35 38 41 43 44 46 48
41 55 58 65 68 61 45 33 37 40 32 29 24 20 21 22 23 33 45 54 46 44 45 50 54 51 62 60 58 53 44 34 31 30 29 28 27 26 24 26 32 38 41 46 51 50 49 50 53
44 53 61 66 66 58 52 37 34 39 31 31 29 23 22 19 20 30 45 52 51 50 49 61 56 49 50 48 44 44 39 37 35 33 29 26 23 23 23 27 33 39 43 48 51 52 55 59 59
51 50 53 50 64 57 48 38 34 34 32 27 31 26 22 23 29 45 58 52 51 54 59 66 62 56 54 49 46 38 34 31 31 30 27 26 26 27 27 28 28 32 37 41 52 59 62 65 67
52 44 38 47 62 56 51 41 36 32 28 30 28 28 31 28 45 41 42 51 67 75 87 79 68 61 64 72 67 67 60 46 41 32 31 31 32 33 33 33 34 38 45 53 61 67 74 74 73
53 46 39 40 65 59 46 36 34 35 29 30 31 30 24 25 38 34 41 44 46 62 71 72 78 80 78 73 77 83 86 69 52 45 43 43 42 41 42 43 48 54 58 63 71 77 81 81 83
54 50 48 44 58 57 48 37 36 33 35 32 30 26 30 29 28 26 26 37 40 49 58 63 72 72 76 88 88 91 92 77 70 64 58 57 56 56 57 57 60 63 67 71 75 81 93 96 94
51 64 48 42 48 48 66 32 35 37 42 36 32 30 35 36 39 37 36 37 48 49 55 74 85 81 92 96 97 96 85 80 73 62 62 65 67 69 67 67 68 70 74 81 96 97 100 100 100
52 66 58 52 52 49 51 54 34 37 47 49 42 40 42 48 52 50 50 52 51 48 58 69 82 88 96 96 96 97 95 78 70 66 64 72 76 76 78 77 83 92 94 98 94 98 100 100 100
53 54 67 68 74 47 57 71 35 42 38 48 53 51 50 62 63 59 61 56 49 55 64 81 87 91 92 95 96 98 97 97 98 95 88 86 88 87 81 92 99 100 100 100 100 98 99 100 99
57 56 54 62 73 46 67 78 46 41 39 37 39 45 47 50 57 57 56 54 55 59 73 97 99 91 95 91 97 99 99 93 99 100 98 94 89 90 94 99 99 99 100 99 100 100 98 93 91
59 83 62 76 67 66 73 65 55 53 47 45 45 47 51 51 51 51 52 55 56 61 75 87 100 100 99 90 98 98 97 99 96 97 97 97 98 100 97 97 98 99 99 98 94 95 96 92 90
45 51 58 80 81 87 83 66 62 56 52 55 53 49 48 48 46 56 60 62 60 68 78 66 98 98 98 99 98 98 97 98 99 98 98 97 98 97 97 87 88 97 90 92 96 100 97 89 81
40 54 58 46 50 67 59 64 52 49 52 49 54 59 51 44 45 48 49 56 91 96 95 93 98 97 98 92 100 98 99 97 98 97 97 98 98 98 95 94 94 97 100 100 95 100 99 100 98
44 45 48 56 55 56 60 51 46 44 48 47 52 83 75 56 66 70 69 78 81 81 81 99 100 99 97 97 96 97 95 97 98 99 100 98 97 95 98 100 100 100 100 98 87 86 85 97 98
48 60 64 80 72 81 78 67 60 52 51 61 85 100 99 89 83 85 78 66 61 84 98 98 97 94 97 94 96 92 94 99 97 97 97 94 93 97 100 100 100 100 100 98 94 95 91 84 89

GFSSGP_500_rhum_174.txt.gz
RH
19 16 10 18 21 20 20 16 19 19 24 21 20 23 24 27 44 61 60 62 66 50 48 45 55 37 42 67 46 25 17 24 27 34 50 73 60 62 74 43 37 35 34 31 28 28 29 29 31
18 14 9 17 16 19 24 24 22 21 18 20 24 23 27 26 31 44 58 59 56 54 51 60 40 28 28 32 28 25 19 26 27 30 50 79 51 73 77 41 37 35 32 29 29 26 21 18 22
18 12 10 16 15 20 24 27 25 24 25 22 22 24 26 30 30 41 48 50 49 48 41 44 38 36 31 27 24 22 20 25 28 30 30 44 39 64 48 36 35 29 25 30 24 18 14 13 13
16 13 12 12 13 20 23 20 23 27 30 31 28 25 26 25 26 35 39 46 47 39 34 45 46 41 36 30 23 20 21 24 26 30 29 29 33 36 32 32 28 24 23 26 20 16 14 15 15
15 13 12 10 10 22 30 26 28 26 30 33 31 27 26 24 27 33 44 42 39 39 38 46 46 45 32 26 21 20 26 27 27 32 31 30 29 29 30 27 23 20 18 20 20 16 15 16 16
16 15 12 9 15 22 23 22 28 33 29 32 31 28 24 26 29 37 36 35 32 48 67 57 42 40 23 21 23 20 28 31 29 32 32 30 29 26 26 24 21 20 19 18 17 16 16 16 17
18 20 16 15 15 23 24 24 24 31 36 34 34 30 27 27 28 37 39 40 25 25 31 28 30 25 15 20 37 26 25 34 34 32 35 32 29 27 26 22 20 20 19 18 17 17 17 17 16
25 22 28 32 32 32 22 22 25 28 38 37 38 36 29 26 23 35 40 41 36 25 23 26 28 29 20 31 47 29 28 34 35 32 34 36 32 27 24 22 21 20 20 21 21 21 19 16 14
22 21 19 20 22 26 26 22 29 33 35 36 39 41 35 29 24 38 44 42 40 32 29 32 35 36 22 42 51 23 29 32 34 32 31 38 37 31 26 26 26 25 24 25 23 20 18 16 14
18 16 26 30 24 19 21 24 29 41 38 38 37 40 42 30 23 39 44 38 36 37 43 42 36 36 23 47 53 27 24 26 26 32 30 34 39 39 34 32 30 28 25 23 20 18 16 14 14
22 38 42 44 36 28 27 26 25 32 36 46 36 38 35 38 31 44 44 38 35 38 45 46 40 32 28 55 55 33 24 27 28 30 32 32 36 38 38 35 30 25 20 19 19 18 18 17 17
30 45 45 44 33 40 40 32 36 36 37 41 39 35 33 36 38 45 52 42 34 34 51 46 38 33 44 55 52 49 38 31 32 35 33 31 31 36 36 35 31 22 19 18 19 19 21 22 23
35 38 38 41 31 34 50 47 38 38 45 44 40 35 33 32 34 40 47 51 51 53 69 60 33 40 43 56 56 50 52 50 47 39 39 31 30 31 36 36 32 22 18 19 20 20 22 23 23
35 34 32 31 32 30 50 51 40 43 48 42 36 32 31 29 33 28 38 55 63 69 72 52 50 53 59 88 83 65 55 54 57 54 42 37 30 30 30 34 32 23 20 20 22 24 25 25 26
31 28 30 30 34 30 54 51 51 51 48 37 33 32 29 28 27 30 37 45 62 64 75 53 44 44 64 74 82 86 60 61 73 72 55 37 30 29 29 30 30 26 21 22 28 31 35 36 39
32 28 34 37 32 29 53 46 52 48 39 37 36 33 30 30 30 29 26 34 48 53 64 70 68 46 56 62 62 91 77 65 73 68 50 37 32 29 30 30 30 28 25 26 33 38 42 43 44
31 39 42 40 33 31 47 50 49 47 40 35 35 35 28 25 27 30 31 32 42 50 61 69 68 49 51 58 54 67 77 63 72 58 49 41 37 36 34 33 30 30 30 31 34 39 43 46 48
32 37 38 34 34 35 40 42 44 42 40 40 35 31 27 24 27 32 33 30 36 59 59 68 64 51 53 67 59 54 54 56 53 52 46 40 38 38 34 31 30 31 32 32 31 36 47 69 67
41 36 34 39 43 37 37 34 37 39 39 38 35 30 29 27 26 31 34 38 38 47 55 66 70 68 76 95 92 81 58 59 62 68 71 56 46 35 34 33 33 33 34 33 35 40 43 49 56
43 43 42 44 45 38 33 29 31 36 43 40 37 32 29 28 28 33 44 44 46 51 51 56 74 92 97 99 92 91 86 83 77 78 89 88 68 51 42 40 39 40 41 43 46 51 54 58 61
44 43 46 42 36 39 35 25 28 31 33 42 39 34 32 29 30 38 40 44 48 44 52 62 71 81 87 96 97 94 94 95 91 94 96 97 93 81 63 56 54 54 53 56 58 60 62 65 78
37 45 45 35 32 29 45 24 21 28 38 44 43 39 36 36 37 37 40 36 39 42 41 51 60 78 86 95 96 97 97 96 98 97 97 96 96 89 84 73 66 66 65 66 67 68 73 84 95
39 43 52 47 41 34 33 40 20 24 33 45 46 43 40 40 39 41 41 41 44 47 50 60 62 75 87 96 97 96 97 97 95 94 94 94 88 88 91 95 84 80 74 74 74 89 97 97 95
40 43 49 57 55 32 32 46 15 27 25 32 48 49 46 46 50 52 47 47 51 49 56 66 61 68 87 100 97 95 90 89 90 92 83 85 81 86 93 98 95 97 96 94 98 100 99 97 100
46 42 45 49 58 34 40 40 21 22 27 34 44 55 56 57 65 66 61 60 57 56 61 66 62 70 81 90 90 85 84 87 83 89 88 85 88 97 95 94 99 97 98 98 99 98 100 96 99
44 42 39 40 36 32 37 28 26 27 32 40 47 52 55 57 56 57 57 56 55 57 63 66 69 71 68 68 75 100 91 77 81 94 94 84 93 94 95 99 98 100 98 100 100 98 98 99 99
49 47 50 60 56 47 33 25 25 24 31 40 48 48 53 54 54 52 51 51 52 56 56 58 59 62 67 80 97 92 95 97 96 91 97 98 100 100 99 98 100 100 97 99 100 99 100 99 100
57 65 61 54 46 41 29 27 32 29 31 34 43 45 46 46 44 45 44 50 56 63 49 45 48 52 56 82 91 94 98 100 98 96 99 98 98 96 98 91 98 99 97 98 99 98 100 100 98
74 68 66 57 45 34 38 24 23 34 37 40 39 40 44 45 41 42 58 70 65 62 74 68 63 72 80 83 62 86 93 100 96 97 96 98 97 95 96 93 89 93 94 100 100 100 100 97 99
50 55 66 54 47 49 69 39 24 45 59 63 61 59 60 48 45 49 66 84 99 97 95 89 82 63 91 97 99 97 98 97 94 99 97 98 96 97 98 90 89 99 100 100 91 98 98 100 100

GFSSGP_500_rhum_180.txt.gz
RH
16 19 18 15 13 12 12 10 17 22 23 25 24 27 27 24 26 37 38 29 30 31 40 41 38 30 36 37 38 31 24 17 16 22 23 28 31 39 36 59 48 34 33 30 31 33 35 37 41
14 17 19 16 13 13 12 11 20 23 25 25 27 26 24 27 26 26 31 29 27 31 39 35 35 33 35 40 46 39 23 16 14 23 25 28 30 32 36 44 34 35 32 28 29 30 28 31 35
16 20 19 15 13 14 13 14 24 29 29 28 25 28 29 29 29 28 29 28 27 30 38 30 38 38 40 38 43 31 21 16 18 25 27 27 31 30 30 31 31 32 27 23 28 24 19 17 26
16 18 16 15 18 18 17 28 30 26 26 27 23 27 31 33 31 31 27 27 29 30 40 33 31 42 47 42 30 25 20 27 18 26 28 28 31 30 29 27 27 29 25 21 24 21 15 13 14
15 16 16 17 20 23 26 27 26 23 23 24 24 28 32 33 36 32 29 28 28 29 40 41 26 30 42 33 31 19 26 32 29 28 30 29 31 33 30 28 25 24 22 19 20 20 16 14 14
15 16 17 19 23 24 26 24 21 22 24 23 24 22 28 32 37 36 34 31 27 25 34 42 34 27 25 27 29 21 28 41 34 26 30 32 33 33 32 29 25 24 21 20 18 18 17 16 15
15 16 17 17 18 20 19 20 22 23 25 28 28 31 29 23 32 37 38 38 32 25 30 45 40 35 28 30 33 25 28 43 40 27 24 27 31 32 35 31 26 23 22 21 20 18 17 16 16
16 17 18 18 17 17 22 25 25 24 25 30 28 29 36 35 28 34 38 40 36 33 32 41 44 38 34 36 41 32 25 38 42 23 25 26 30 31 32 34 29 23 22 21 20 18 17 16 16
16 16 18 18 19 22 28 26 24 23 24 29 27 29 35 45 38 40 40 41 40 34 30 37 42 37 37 43 45 39 25 34 50 25 24 24 26 31 30 32 32 29 24 24 22 22 20 17 15
16 17 18 22 25 27 24 20 19 24 26 28 28 31 35 48 48 48 47 44 46 44 36 35 43 38 38 44 45 43 28 38 52 38 24 26 26 28 31 30 33 32 32 29 28 28 25 21 19
17 18 18 19 19 23 24 22 23 27 26 25 28 36 34 52 53 48 50 50 47 56 51 42 47 40 36 41 47 45 30 46 56 51 31 28 31 30 32 32 31 34 31 33 32 29 25 19 17
17 20 20 19 19 18 19 20 22 23 31 34 34 37 32 54 53 51 46 50 44 44 50 52 44 56 33 37 51 52 34 38 52 53 50 37 33 33 34 35 32 31 33 33 32 32 28 19 16
16 19 19 19 19 19 23 29 28 28 34 33 28 34 31 56 54 54 50 44 44 46 54 56 45 53 61 47 54 69 36 38 47 53 53 53 51 46 40 38 37 34 32 33 35 34 31 21 18
18 20 22 21 20 22 23 24 24 27 28 25 26 33 32 55 51 50 51 46 40 38 46 54 56 60 61 62 62 69 42 40 45 61 73 59 54 55 56 51 42 36 34 32 32 35 35 29 21
28 25 28 32 32 30 27 27 29 29 34 31 36 33 32 48 44 43 43 42 37 33 34 42 60 70 72 54 59 69 57 52 51 58 72 69 63 52 54 63 59 43 36 32 31 31 33 35 29
27 27 27 33 40 39 36 32 36 34 36 30 36 33 30 40 43 45 44 40 35 34 33 34 44 67 68 69 63 75 68 63 62 62 61 56 63 66 56 66 64 57 44 35 30 31 30 32 32
35 33 40 37 38 47 41 36 36 34 33 35 35 32 26 30 37 41 44 44 36 32 33 31 37 63 70 68 70 69 77 84 81 68 59 56 54 62 65 60 59 52 43 37 32 30 30 30 32
41 34 35 39 42 42 40 36 38 37 35 32 31 29 27 28 30 34 38 41 36 31 32 28 34 45 58 76 71 72 77 93 97 65 54 58 60 57 55 57 57 51 43 41 39 36 36 36 35
40 39 36 34 39 42 35 29 31 26 28 26 26 27 28 29 29 31 34 38 39 34 32 28 28 31 42 57 75 87 86 92 99 65 53 55 64 81 90 95 85 70 47 46 43 42 40 38 36
26 57 45 44 46 36 31 25 24 22 21 24 25 25 25 29 29 32 34 36 40 37 33 32 33 31 42 52 67 63 73 87 89 88 83 87 92 96 96 96 96 90 76 59 58 59 51 43 38
52 59 52 39 36 34 28 22 21 16 13 18 21 19 20 24 29 30 32 36 38 40 36 34 37 38 35 41 45 60 74 82 87 95 95 96 96 97 98 98 94 93 92 92 79 73 83 78 67
52 48 43 38 37 31 28 12 12 12 12 12 14 17 18 20 22 23 28 33 40 41 40 36 43 55 42 40 52 58 78 91 96 96 94 94 92 93 97 98 97 97 95 96 95 96 96 95 96
42 38 33 30 27 22 19 15 10 10 11 13 12 14 14 15 15 18 22 30 36 47 48 44 43 49 61 52 54 54 66 80 90 89 93 95 96 96 100 99 100 97 97 97 91 82 91 96 96
40 35 31 28 24 20 19 18 12 13 14 12 12 12 15 16 17 18 22 27 35 46 56 56 51 50 51 58 59 65 67 78 87 82 77 75 74 76 93 96 97 94 93 98 99 98 97 96 96
43 34 28 25 22 21 19 18 16 16 15 13 14 17 19 20 20 23 23 23 26 32 42 53 60 59 62 68 68 66 69 77 80 87 91 89 87 75 76 97 96 98 97 98 98 98 99 96 97
39 32 26 24 24 21 24 24 23 21 14 10 16 24 25 26 29 30 31 29 28 27 35 41 48 56 60 60 62 71 75 75 87 92 81 98 96 98 89 95 96 96 96 96 96 96 97 98 98
43 41 51 46 41 36 33 28 19 16 14 12 20 22 25 29 32 25 25 33 37 37 38 46 55 64 72 74 75 73 74 77 90 88 90 90 98 97 92 83 82 93 98 96 97 98 94 98 98
88 81 60 52 45 37 24 20 16 15 13 12 13 21 32 44 42 38 32 28 29 47 52 55 60 69 69 69 69 77 81 83 94 94 96 98 85 94 98 98 98 98 94 97 96 87 78 65 78
40 36 31 44 30 50 27 15 16 18 11 12 22 33 39 48 49 49 39 31 24 37 60 61 66 62 58 60 77 97 97 100 99 97 98 96 96 84 77 72 82 76 52 24 20 20 15 26 29
31 24 25 44 32 37 34 22 28 29 25 23 25 30 40 42 36 40 35 29 33 38 50 72 74 65 65 74 83 88 91 97 97 96 95 82 71 44 34 23 15 10 12 12 12 14 16 25 36

GFSSGP_500_rhum_186.txt.gz
RH
12 14 15 18 18 32 45 44 16 14 28 25 22 23 22 24 26 28 26 31 30 28 27 27 29 35 33 29 36 35 32 26 18 22 16 19 24 24 23 22 22 25 26 25 27 29 30 30 30
11 12 13 17 17 31 49 35 28 20 26 23 22 23 23 23 25 25 27 28 29 33 29 28 28 33 34 31 34 36 30 26 20 25 18 20 22 24 23 23 22 23 25 23 22 26 27 30 34
11 12 13 15 17 30 39 30 19 24 24 21 23 25 22 25 25 26 32 29 29 37 34 29 28 28 27 35 30 31 29 30 25 28 28 29 21 25 25 24 22 23 24 20 19 26 24 20 28
11 12 13 14 16 45 30 18 21 23 21 22 25 26 20 23 23 27 31 35 30 32 37 36 31 27 26 34 34 27 27 29 31 28 30 33 22 24 27 26 23 21 23 21 19 23 22 16 18
11 12 12 12 22 39 33 20 18 18 18 24 26 23 19 22 22 28 30 32 37 31 35 39 35 29 28 34 41 34 30 32 33 29 31 34 32 21 27 27 25 23 22 22 18 18 21 16 14
11 11 12 13 34 38 36 24 17 16 18 25 26 22 22 22 25 31 32 32 39 36 36 40 38 35 32 32 40 41 34 35 39 36 31 34 37 22 26 28 28 24 23 22 19 17 18 18 15
10 10 10 11 15 32 36 20 17 18 24 24 24 22 20 22 29 30 27 31 36 43 41 41 40 37 35 31 35 42 37 37 39 39 28 33 40 24 24 27 29 30 26 23 21 19 18 18 18
9 9 9 12 16 25 26 16 18 20 23 22 24 23 25 26 28 27 26 28 34 46 45 47 44 38 37 34 35 40 36 37 39 43 32 32 42 26 24 26 29 29 31 26 23 21 19 19 18
10 10 9 12 19 32 23 15 18 19 22 22 19 22 25 23 25 28 32 30 35 49 46 51 48 43 42 44 37 38 39 36 38 40 42 32 39 39 25 24 25 30 30 33 28 23 22 21 20
11 11 11 13 18 18 18 16 18 18 19 19 19 19 20 24 27 32 34 34 35 51 47 51 52 50 51 46 43 39 41 38 35 39 46 40 35 40 44 31 24 26 30 31 33 33 27 26 26
10 10 12 13 15 12 17 19 19 18 18 21 21 26 24 28 31 33 33 33 34 47 50 45 49 49 48 42 49 44 41 43 37 36 42 46 36 36 41 49 42 29 27 30 31 29 31 34 32
7 8 10 12 13 12 15 17 17 18 23 28 29 28 30 39 41 37 36 33 31 41 49 42 45 42 44 38 44 47 43 44 47 42 42 48 46 35 36 41 47 47 44 30 30 33 31 28 28
5 7 9 11 12 13 14 15 18 23 26 30 30 31 31 39 42 38 36 35 36 31 44 40 32 38 40 38 37 45 44 45 48 51 51 52 58 45 36 39 42 52 55 48 39 32 35 34 30
7 8 9 12 14 15 15 15 18 21 26 28 31 31 32 38 41 38 38 39 35 36 29 32 32 34 36 40 32 44 37 48 52 60 60 53 54 56 43 38 45 50 59 60 54 45 44 39 37
6 7 8 11 15 17 18 16 20 23 30 27 26 26 34 40 39 33 38 35 33 38 34 35 38 38 35 40 33 40 36 43 56 69 75 61 54 58 56 49 51 56 59 60 56 61 56 58 56
11 11 10 18 19 19 19 16 20 24 28 28 28 23 36 36 34 32 32 30 30 33 28 28 42 44 41 36 33 38 35 38 53 70 77 76 61 60 62 64 63 65 64 65 63 64 63 60 60
18 18 19 20 21 22 24 19 21 22 24 27 29 29 36 29 27 26 26 29 30 34 28 27 39 48 40 34 30 34 34 40 40 71 80 81 72 65 68 72 78 80 81 84 93 87 82 65 57
20 21 26 28 24 26 24 22 21 22 22 22 38 39 36 27 22 21 20 21 22 27 30 24 31 46 41 37 32 30 35 56 48 60 64 75 82 72 76 79 78 88 93 95 96 97 96 95 88
44 36 23 20 21 23 23 24 24 22 20 26 41 35 30 20 13 13 13 15 16 21 25 20 24 32 32 34 36 32 35 44 36 42 53 79 77 67 71 81 87 93 98 94 95 96 96 95 100
43 41 38 33 40 44 36 30 32 31 30 36 42 33 27 18 13 12 11 12 14 18 21 16 19 27 25 25 33 32 35 43 58 60 68 65 74 75 81 90 91 95 97 95 99 93 93 84 100
40 41 39 37 44 48 49 31 38 40 39 41 38 27 19 17 15 13 11 10 9 9 12 17 14 26 17 21 27 32 38 46 49 54 59 64 69 83 88 96 88 94 100 100 99 97 96 97 96
44 62 50 51 54 41 56 27 40 47 40 31 29 23 16 17 16 14 14 13 11 11 12 18 14 18 17 20 26 34 36 43 47 51 57 70 78 86 80 79 80 94 98 97 100 99 95 97 86
44 70 71 66 53 47 48 48 38 42 34 28 23 23 19 19 17 16 16 18 16 11 12 15 21 17 16 24 27 30 40 45 53 59 65 67 80 82 84 82 98 100 100 100 97 94 94 87 76
55 75 82 66 62 39 49 59 45 43 42 29 19 23 22 21 20 21 22 22 20 12 12 12 20 23 25 26 25 24 25 34 49 62 65 70 83 86 94 99 98 96 96 97 98 98 92 96 98
59 64 68 68 57 37 54 48 44 48 49 43 35 31 28 27 26 26 28 24 17 13 15 19 17 23 26 27 27 29 35 36 33 45 56 73 76 86 92 97 96 100 94 92 96 96 96 97 97
61 70 68 87 76 57 70 62 88 89 83 43 37 34 32 33 34 33 34 24 18 16 14 18 21 23 28 34 33 30 30 34 41 38 49 66 69 72 80 91 89 98 96 96 97 96 98 96 97
63 70 72 77 70 56 48 58 79 69 65 49 45 40 40 40 46 44 38 24 18 16 15 14 13 15 23 28 37 43 42 33 33 39 56 66 71 77 79 99 68 93 98 98 96 88 91 79 81
76 81 76 71 63 64 48 53 57 98 79 57 59 52 48 44 39 35 30 26 23 22 21 18 17 13 10 12 20 27 30 36 36 31 38 47 62 68 75 98 86 95 92 100 80 62 43 27 13
81 77 76 84 69 70 54 50 74 81 89 82 62 54 47 46 40 37 36 31 27 26 23 21 18 15 12 12 12 13 16 21 19 21 28 59 62 63 67 84 90 81 83 50 11 8 6 5 4
93 95 98 96 79 88 96 31 69 72 84 96 74 63 53 38 24 20 19 24 24 22 25 22 19 18 17 20 19 21 24 38 32 30 37 59 71 83 87 64 54 30 17 8 8 7 5 4 5

GFSSGP_500_rhum_189.txt.gz
RH
11 11 14 15 32 44 46 48 41 34 21 26 22 23 24 22 21 24 26 29 32 34 36 34 30 28 29 28 34 34 34 30 30 27 26 19 21 23 22 20 18 18 19 22 24 25 25 27 28
11 11 12 15 24 30 46 44 39 38 23 25 20 20 23 20 21 21 26 30 32 36 38 38 34 31 29 28 31 35 29 29 30 31 28 29 31 22 24 23 20 18 18 19 20 22 25 28 31
10 11 11 13 17 29 43 37 38 24 22 21 20 20 23 22 22 25 27 30 35 39 39 42 40 37 32 29 32 36 31 28 29 32 31 30 34 24 25 24 21 18 19 19 18 19 22 22 26
9 10 11 12 22 37 30 27 36 19 18 17 18 23 23 23 23 25 24 27 30 40 43 40 40 39 35 31 34 38 38 32 32 34 34 30 34 32 22 27 24 20 20 20 18 18 21 18 18
9 10 11 12 27 32 38 39 39 32 21 17 19 28 22 24 21 24 25 25 26 33 45 45 42 40 39 36 35 35 39 38 36 37 39 33 34 38 22 27 27 23 22 22 19 18 18 18 14
10 10 10 10 12 12 45 44 41 30 19 17 23 25 18 19 23 22 25 27 32 31 46 50 46 42 41 39 37 33 38 38 36 38 40 34 31 41 26 24 28 26 22 22 21 18 17 18 16
10 10 10 9 11 32 38 28 25 20 23 18 22 21 18 17 25 24 25 31 34 34 45 54 50 47 44 40 38 36 36 40 36 37 40 41 34 38 35 24 25 28 27 23 22 19 18 17 17
10 10 10 9 10 18 25 22 18 14 16 18 20 20 17 16 22 26 27 32 34 35 36 57 54 51 47 44 42 43 38 40 38 36 39 42 39 35 39 31 27 25 28 28 23 22 19 19 18
10 9 10 10 11 10 12 12 12 14 15 17 20 19 18 17 22 31 36 38 36 35 34 55 58 54 51 48 48 48 44 41 42 40 37 40 43 39 38 41 39 31 25 27 29 26 23 21 19
9 8 8 11 12 11 11 11 13 15 13 16 18 18 22 17 21 26 29 33 36 35 35 48 57 53 52 50 48 42 49 44 42 45 39 36 40 47 38 40 44 45 37 28 26 30 28 27 25
6 5 9 9 11 12 11 14 18 18 16 18 18 27 27 23 26 29 28 34 33 30 36 44 55 51 50 49 44 42 44 47 44 46 48 45 43 44 52 41 38 41 44 44 41 29 29 32 30
4 4 5 7 8 10 8 10 11 17 17 19 23 30 26 29 33 28 37 38 28 22 31 42 50 48 45 38 44 42 42 47 46 44 46 52 52 50 57 57 45 43 44 44 50 46 41 30 33
5 4 4 4 7 9 12 12 14 12 17 20 25 26 29 29 28 26 38 41 31 25 28 41 42 42 41 32 40 42 43 45 47 47 48 54 60 61 62 60 58 50 42 43 51 59 58 46 42
6 5 5 5 6 7 10 11 10 14 16 18 22 22 27 27 29 28 40 38 38 26 27 35 39 37 37 36 39 43 42 44 41 44 50 51 58 66 70 63 59 62 56 53 59 64 65 58 56
6 6 6 6 6 6 9 9 14 16 17 18 19 19 20 24 29 30 34 34 33 25 25 25 43 43 41 41 42 43 41 44 38 42 51 51 60 64 58 68 61 63 68 70 73 74 70 66 66
26 32 17 9 12 13 14 14 16 18 19 20 21 22 24 22 43 38 29 24 23 22 20 21 29 48 44 46 41 42 39 39 30 32 41 67 57 61 61 60 68 69 74 82 85 90 89 93 96
29 37 23 19 19 17 17 18 21 22 24 27 28 27 24 23 41 37 23 21 17 18 20 20 23 35 42 44 38 38 37 35 33 32 40 46 51 52 63 62 63 65 73 83 94 96 92 99 98
17 21 23 21 22 23 22 26 24 24 25 25 24 25 28 28 42 34 18 12 15 14 13 11 19 30 36 37 36 37 38 35 32 41 54 52 46 44 55 72 74 84 75 77 93 92 91 98 93
20 23 28 34 38 39 43 39 38 36 34 34 39 44 44 42 39 29 12 13 11 10 9 10 13 24 29 28 23 26 26 36 36 47 64 53 47 52 55 68 92 98 79 83 88 97 92 91 93
26 33 27 28 32 35 33 27 30 33 33 37 42 43 43 43 34 22 12 13 10 9 8 8 9 15 23 21 17 18 25 30 40 41 47 51 59 64 64 66 60 79 93 87 85 99 99 87 86
19 22 32 46 53 46 41 26 31 37 43 42 40 44 40 37 24 17 15 17 14 12 12 11 10 11 11 11 12 32 29 30 34 42 48 52 64 72 65 62 69 77 74 77 90 84 87 88 76
50 58 54 42 41 40 53 25 32 42 42 43 39 37 32 31 18 17 21 16 15 15 16 16 15 12 18 25 28 25 28 22 30 35 46 56 67 70 67 68 68 70 73 75 91 80 76 93 76
44 49 46 42 46 54 52 44 31 44 38 40 38 39 36 30 29 20 18 18 17 18 19 20 19 18 15 16 18 16 16 18 20 22 31 42 47 50 57 58 65 71 84 94 88 89 96 97 84
45 53 57 53 61 40 44 62 30 44 32 32 38 41 44 38 30 26 23 21 20 22 24 25 23 20 18 16 15 14 16 16 17 20 23 28 37 49 53 60 72 79 85 91 90 88 94 82 95
46 52 56 56 55 35 44 58 50 52 38 36 39 42 40 34 30 32 30 30 31 31 34 34 26 19 15 14 13 13 14 17 20 22 25 27 34 33 37 40 44 61 69 77 79 100 84 98 97
62 69 70 66 52 45 60 41 47 50 32 32 37 45 49 47 44 44 41 41 45 43 42 40 28 20 17 16 15 13 12 12 15 20 29 32 32 39 34 40 45 56 76 77 98 91 97 99 97
59 59 60 71 70 54 50 60 63 62 54 54 54 50 50 55 49 40 34 35 43 42 38 34 31 29 28 26 25 23 22 20 17 16 18 20 24 21 23 32 40 47 99 67 98 90 96 91 75
64 65 76 64 61 52 41 60 93 76 82 77 70 54 47 45 47 46 42 48 47 42 35 26 18 16 17 18 19 21 21 18 16 14 14 17 20 20 21 26 50 56 58 96 98 99 60 30 32
64 62 62 60 55 56 58 53 71 74 64 66 68 69 60 54 48 44 44 43 42 35 21 22 20 19 19 19 28 26 24 20 20 18 19 24 28 32 35 38 53 68 94 100 98 100 71 11 8
74 78 85 80 75 68 68 54 86 94 87 89 98 87 71 64 52 42 39 38 34 24 27 51 35 30 35 80 60 52 51 40 38 31 28 29 40 47 49 37 53 75 96 100 99 52 16 9 8

GFSSGP_500_rhum_192.txt.gz
RH
10 10 13 25 38 32 32 24 30 33 40 38 24 22 21 22 22 23 27 29 32 36 39 38 39 36 34 33 30 31 34 30 30 30 30 28 34 26 24 23 20 17 17 20 22 23 23 20 20
10 10 11 18 34 26 23 29 25 39 39 21 22 20 19 22 22 22 23 26 27 29 40 44 41 41 39 35 31 33 36 31 29 32 32 30 32 33 23 25 23 19 19 20 20 22 22 23 23
9 9 10 15 26 19 17 18 16 44 41 21 18 18 20 23 20 21 24 28 33 32 33 49 46 40 40 39 34 34 37 39 32 33 35 30 32 36 24 26 25 21 18 20 19 21 23 23 25
8 9 10 13 18 21 10 14 17 33 33 20 18 17 22 22 19 22 23 26 32 35 36 45 52 45 43 40 39 37 36 42 37 36 37 34 33 36 33 23 28 24 18 19 19 19 21 20 19
8 9 10 13 16 15 12 12 21 23 20 26 24 17 20 21 19 19 23 27 32 35 35 36 55 53 46 42 42 40 37 42 40 38 39 36 33 34 39 24 27 28 23 18 19 18 19 19 16
9 10 10 11 17 30 20 15 10 11 15 19 18 18 16 17 17 20 28 31 35 39 37 34 44 58 52 45 44 41 38 40 42 39 40 41 37 33 40 30 24 27 28 23 19 18 16 17 17
10 10 10 10 15 21 13 14 16 16 12 15 17 16 16 16 15 20 29 32 34 38 41 36 37 57 59 49 46 44 41 42 44 42 40 42 41 36 39 36 26 26 27 29 26 20 19 17 15
10 10 10 10 11 11 12 13 12 10 11 13 16 16 15 16 15 19 28 32 36 38 44 39 36 49 59 57 50 48 47 48 45 47 43 40 43 44 37 42 36 28 26 26 29 29 22 20 19
9 9 10 10 10 10 10 10 10 9 12 14 17 18 18 18 16 19 27 28 28 39 45 42 36 42 56 62 54 52 51 55 51 47 47 42 42 43 47 40 41 46 39 31 26 27 29 28 22
8 8 8 10 11 10 9 9 10 11 13 12 14 16 16 16 14 20 26 28 26 32 41 41 36 38 51 58 56 54 53 54 59 57 50 50 46 47 49 55 44 41 48 48 43 36 29 30 31
4 3 5 5 7 7 8 8 9 12 10 16 14 15 15 13 17 22 26 28 30 30 36 40 35 38 48 54 53 52 50 53 54 56 58 52 53 55 58 59 63 58 42 44 43 46 48 41 31
5 4 4 4 4 4 6 7 12 13 12 18 18 18 17 18 18 21 24 25 28 28 31 34 37 36 43 45 46 48 44 49 53 60 48 51 51 57 66 66 63 64 64 51 46 45 51 60 50
6 6 5 5 4 4 6 7 10 6 13 13 16 17 19 24 22 23 25 24 28 29 28 30 38 33 38 40 41 43 41 43 47 52 51 50 48 54 63 76 76 63 64 67 64 56 56 64 65
6 6 6 6 5 5 6 7 8 11 12 12 13 14 16 18 23 25 23 28 29 32 29 29 33 34 37 37 41 44 46 48 47 50 50 52 54 57 59 70 88 83 70 63 65 72 78 78 75
7 5 6 6 8 6 6 6 6 8 9 12 15 18 20 21 25 26 22 37 33 31 28 26 29 37 41 43 43 45 47 49 46 47 45 36 41 76 87 70 78 86 74 75 75 75 79 80 78
11 10 6 15 36 51 23 10 10 15 16 18 19 22 24 27 25 26 28 34 35 27 25 20 28 36 45 36 43 44 49 49 45 41 35 31 36 40 82 75 73 79 82 80 77 84 86 80 79
8 6 8 23 33 38 32 23 20 20 21 22 26 30 30 29 32 38 38 36 35 23 19 18 21 26 36 30 35 38 43 48 45 40 37 36 39 44 59 70 89 66 95 96 87 82 83 88 90
8 12 13 13 18 18 24 28 32 34 36 38 39 38 39 34 36 40 39 36 27 15 11 10 11 21 27 24 24 26 25 33 41 40 38 38 45 49 51 64 68 64 82 87 92 98 98 86 97
9 15 13 20 19 18 24 33 32 32 35 35 36 38 39 36 35 40 38 32 16 10 9 8 10 18 27 22 18 14 15 18 28 37 39 42 44 42 38 46 64 76 79 78 72 73 78 96 96
17 25 28 22 21 22 25 25 28 39 44 42 45 41 39 42 40 39 37 28 13 11 11 10 10 10 12 12 10 8 10 19 28 26 28 36 39 40 46 48 60 62 63 69 83 78 76 84 85
21 25 31 46 44 24 21 25 32 35 35 49 47 37 36 35 43 40 32 24 15 18 23 16 14 15 13 11 10 9 11 23 18 16 14 11 20 24 34 49 47 53 53 61 64 68 78 80 74
26 32 40 50 51 35 44 22 24 29 41 42 34 34 36 40 41 35 26 18 16 25 20 15 16 17 19 18 17 14 16 14 15 14 13 13 15 20 26 29 40 37 42 52 58 55 60 61 60
39 34 44 53 60 56 38 37 17 32 36 33 31 32 42 40 34 32 22 19 21 21 17 16 18 22 24 24 23 22 20 15 15 14 14 11 10 13 20 27 33 35 42 44 42 46 44 49 61
44 63 59 51 43 36 36 44 12 34 31 34 35 34 36 40 35 31 29 26 24 21 20 20 21 24 26 29 32 28 23 24 25 16 17 14 13 14 32 40 33 40 40 39 41 40 43 53 52
49 45 48 46 44 40 38 45 29 36 31 34 39 37 35 37 40 37 34 31 29 29 28 28 31 34 37 38 38 41 45 45 38 25 24 31 26 19 34 40 37 49 46 39 36 41 51 74 63
39 40 42 46 47 44 47 39 36 36 32 38 37 37 41 43 44 42 44 44 44 46 43 41 41 41 39 36 33 29 23 21 26 21 25 26 36 26 27 33 39 35 39 34 37 42 45 95 81
64 64 65 72 64 62 48 43 39 35 37 39 40 44 42 38 35 44 76 74 56 50 54 53 47 42 35 29 27 23 21 18 18 18 19 26 22 23 32 23 17 39 39 30 48 43 95 99 75
78 77 73 65 56 55 45 50 47 40 44 47 46 42 44 46 46 57 67 54 55 62 61 52 38 28 26 26 32 33 28 22 24 22 33 32 25 22 22 29 33 28 23 32 30 58 92 55 81
76 68 66 65 55 60 62 52 52 59 61 53 50 55 51 48 52 58 53 54 62 67 58 40 26 23 22 24 30 34 32 26 34 41 52 50 40 38 36 32 38 28 35 43 45 39 32 59 91
86 72 73 68 60 71 66 54 54 89 74 78 63 65 58 56 52 51 58 58 58 50 45 37 25 15 14 13 18 20 20 23 25 31 44 67 63 40 34 31 44 47 43 54 54 58 71 95 100